Weather History for KGRB - February, 2014

Change the Weather History Date:

Monday, February 24, 2014

  Actual Average Record
Temperature  
Mean Temperature 10 °F 23 °F  
Max Temperature 16 °F 31 °F 53 °F (1930)
Min Temperature 4 °F 15 °F -21 °F (1899)
Degree Days  
Heating Degree Days 55 42  
Month to date heating degree days 1330 1087  
Since 1 July heating degree days 6223 5676  
Cooling Degree Days 0 0  
Month to date cooling degree days 0 0  
Year to date cooling degree days 0 0  
Moisture  
Dew Point 0 °F    
Average Humidity 66    
Maximum Humidity 79    
Minimum Humidity 53    
Precipitation  
Precipitation 0.00 in 0.05 in 0.60 in (1948)
Month to date precipitation 1.21 0.91  
Year to date precipitation 2.54 2.04  
Snow  
Snow 0.00 in 0.30 in 3.50 in (1922)
Month to date snowfall 13.7 8.5  
Since 1 July snowfall 58.3 38.8  
Snow Depth 14.00 in    
Sea Level Pressure  
Sea Level Pressure 30.20 in    
Wind  
Wind Speed 12 mph (West)    
Max Wind Speed 22 mph    
Max Gust Speed 25 mph    
Visibility 10 miles    
Events      
T = Trace of Precipitation, MM = Missing Value Source: NWS Daily Summary

Daily Weather History Graph

Daily Weather History Graph

Search for Another Location

Airport or City:

Trip Planner

Search our weather history database for the weather conditions in past years. The results will help you decide how hot, cold, wet, or windy it might be!

Date:

Astronomy

Feb. 24, 2014 Rise Set
Actual Time 6:38 AM CST 5:33 PM CST
Civil Twilight 6:08 AM CST 6:03 PM CST
Nautical Twilight 5:35 AM CST 6:37 PM CST
Astronomical Twilight 5:01 AM CST 7:10 PM CST
Moon 2:44 AM CST (2/24) 12:27 PM CST (2/24)
Length of Visible Light 11h 54m
Length of Day
10h 55m
Waning Crescent, 28% of the Moon is Illuminated
Feb 24
Waning Crescent
Mar 1
New
Mar 8
First Quarter
Mar 16
Full
Mar 23
Last Quarter

Hourly Weather History & Observations

Time (CST) Temp. Windchill Dew Point Humidity Pressure Visibility Wind Dir Wind Speed Gust Speed Precip Events Conditions
12:53 AM 10.0 °F -5.9 °F 1.9 °F 70% 30.14 in 10.0 mi West 13.8 mph - N/A   Clear
1:53 AM 8.1 °F -7.0 °F 1.0 °F 73% 30.14 in 10.0 mi West 11.5 mph - N/A   Clear
2:53 AM 7.0 °F -8.3 °F -0.0 °F 73% 30.14 in 10.0 mi West 11.5 mph - N/A   Clear
3:53 AM 6.1 °F -8.7 °F -0.9 °F 73% 30.15 in 10.0 mi West 10.4 mph - N/A   Clear
4:53 AM 6.1 °F -9.5 °F -0.9 °F 73% 30.16 in 10.0 mi West 11.5 mph - N/A   Clear
5:53 AM 5.0 °F -10.0 °F -2.0 °F 73% 30.17 in 10.0 mi West 10.4 mph - N/A   Clear
6:53 AM 3.9 °F -11.3 °F -2.0 °F 76% 30.18 in 10.0 mi West 10.4 mph - N/A   Clear
7:53 AM 6.1 °F -9.5 °F -2.0 °F 69% 30.19 in 10.0 mi West 11.5 mph - N/A   Clear
8:53 AM 7.0 °F -11.6 °F -0.9 °F 70% 30.20 in 10.0 mi West 17.3 mph - N/A   Clear
9:33 AM 8.1 °F -10.2 °F -0.0 °F 70% 30.16 in 10.0 mi West 17.3 mph 24.2 mph N/A   Mostly Cloudy
9:53 AM 9.0 °F -8.5 °F -0.0 °F 67% 30.21 in 10.0 mi West 16.1 mph - N/A   Mostly Cloudy
10:08 AM 9.0 °F -9.0 °F -0.0 °F 67% 30.16 in 10.0 mi West 17.3 mph - N/A   Partly Cloudy
10:53 AM 10.0 °F -8.6 °F -0.0 °F 64% 30.21 in 10.0 mi West 19.6 mph - N/A   Partly Cloudy
11:53 AM 12.0 °F -2.7 °F 1.9 °F 64% 30.22 in 10.0 mi West 12.7 mph - N/A   Scattered Clouds
12:53 PM 12.9 °F -3.4 °F 1.0 °F 59% 30.20 in 10.0 mi West 16.1 mph - N/A   Partly Cloudy
1:53 PM 14.0 °F -2.0 °F 1.9 °F 59% 30.20 in 10.0 mi West 16.1 mph - N/A   Clear
2:53 PM 15.1 °F 1.1 °F 1.9 °F 56% 30.20 in 10.0 mi West 12.7 mph 19.6 mph N/A   Clear
3:53 PM 16.0 °F 1.7 °F 1.0 °F 52% 30.21 in 10.0 mi West 13.8 mph - N/A   Clear
4:53 PM 15.1 °F 1.8 °F 1.0 °F 54% 30.21 in 10.0 mi West 11.5 mph - N/A   Clear
5:53 PM 12.0 °F -1.3 °F 1.0 °F 61% 30.22 in 10.0 mi WSW 10.4 mph - N/A   Clear
6:53 PM 10.9 °F -2.6 °F 1.0 °F 64% 30.24 in 10.0 mi West 10.4 mph - N/A   Clear
7:53 PM 10.0 °F -1.9 °F 1.0 °F 67% 30.23 in 10.0 mi West 8.1 mph - N/A   Clear
8:53 PM 10.0 °F -0.9 °F 1.0 °F 67% 30.23 in 10.0 mi West 6.9 mph - N/A   Clear
9:53 PM 10.0 °F -3.7 °F 1.0 °F 67% 30.23 in 10.0 mi WNW 10.4 mph - N/A   Clear
10:53 PM 10.0 °F -2.9 °F 1.0 °F 67% 30.24 in 10.0 mi West 9.2 mph - N/A   Clear
11:53 PM 9.0 °F -3.2 °F 1.0 °F 70% 30.23 in 10.0 mi West 8.1 mph - N/A   Partly Cloudy